Time,TemperatureF,DewpointF,PressureIn,WindDirection,WindDirectionDegrees,WindSpeedMPH,WindSpeedGustMPH,Humidity,HourlyPrecipIn,Conditions,Clouds,dailyrainin,SoftwareType,DateUTC
2013-08-08 00:00:00,64.6,61.3,29.92,West,270,4.0,5.0,89,0.00,,,0.00,meteohub,2013-08-08 05:00:00,
2013-08-08 00:05:00,64.6,61.3,29.92,NW,315,4.0,5.0,89,0.00,,,0.00,meteohub,2013-08-08 05:05:00,
2013-08-08 00:10:00,64.8,61.2,29.92,North,0,4.0,5.0,88,0.00,,,0.00,meteohub,2013-08-08 05:10:00,
2013-08-08 00:15:00,64.9,61.3,29.92,North,0,4.0,5.0,88,0.00,,,0.00,meteohub,2013-08-08 05:15:00,
2013-08-08 00:20:00,64.9,61.0,29.92,NW,315,5.0,5.0,87,0.00,,,0.00,meteohub,2013-08-08 05:20:00,
2013-08-08 00:25:00,64.9,61.0,29.92,North,0,2.0,5.0,87,0.00,,,0.00,meteohub,2013-08-08 05:25:00,
2013-08-08 00:30:00,64.6,60.6,29.93,NW,315,7.0,7.0,87,0.00,,,0.00,meteohub,2013-08-08 05:30:00,
2013-08-08 00:35:00,64.4,60.4,29.92,North,0,4.0,7.0,87,0.00,,,0.00,meteohub,2013-08-08 05:35:00,
2013-08-08 00:40:00,64.6,60.6,29.92,NW,315,4.0,7.0,87,0.00,,,0.00,meteohub,2013-08-08 05:40:00,
2013-08-08 00:45:00,64.4,60.4,29.92,North,0,2.0,7.0,87,0.00,,,0.00,meteohub,2013-08-08 05:45:00,
2013-08-08 00:50:00,64.2,59.9,29.92,North,0,4.0,4.0,86,0.00,,,0.00,meteohub,2013-08-08 05:50:00,
2013-08-08 00:55:00,64.0,60.1,29.93,North,0,3.0,4.0,87,0.00,,,0.00,meteohub,2013-08-08 05:55:00,
2013-08-08 01:00:00,64.0,60.1,29.93,NW,315,4.0,4.0,87,0.00,,,0.00,meteohub,2013-08-08 06:00:00,
2013-08-08 01:05:00,64.0,60.1,29.93,NW,315,4.0,4.0,87,0.00,,,0.00,meteohub,2013-08-08 06:05:00,
2013-08-08 01:10:00,64.4,60.4,29.92,NW,315,5.0,5.0,87,0.00,,,0.00,meteohub,2013-08-08 06:10:00,
2013-08-08 01:15:00,64.4,60.4,29.92,NW,315,4.0,5.0,87,0.00,,,0.00,meteohub,2013-08-08 06:15:00,
2013-08-08 01:20:00,64.4,60.1,29.92,NW,315,4.0,5.0,86,0.00,,,0.00,meteohub,2013-08-08 06:20:00,
2013-08-08 01:25:00,64.4,60.1,29.92,NW,315,3.0,5.0,86,0.00,,,0.00,meteohub,2013-08-08 06:25:00,
2013-08-08 01:30:00,64.2,59.5,29.92,NW,315,3.0,5.0,85,0.00,,,0.00,meteohub,2013-08-08 06:30:00,
2013-08-08 01:36:00,64.2,59.5,29.93,NW,315,6.0,6.0,85,0.00,,,0.00,meteohub,2013-08-08 06:36:00,
2013-08-08 01:41:00,64.2,59.5,29.93,NW,315,4.0,6.0,85,0.00,,,0.00,meteohub,2013-08-08 06:41:00,
2013-08-08 01:46:00,64.0,59.7,29.93,NW,315,5.0,6.0,86,0.00,,,0.00,meteohub,2013-08-08 06:46:00,
2013-08-08 01:51:00,64.0,59.7,29.93,North,0,5.0,6.0,86,0.00,,,0.00,meteohub,2013-08-08 06:51:00,
2013-08-08 01:56:00,63.9,59.5,29.93,North,0,4.0,6.0,86,0.00,,,0.00,meteohub,2013-08-08 06:56:00,
2013-08-08 02:01:00,63.7,59.4,29.93,NW,315,3.0,6.0,86,0.00,,,0.00,meteohub,2013-08-08 07:01:00,
2013-08-08 02:06:00,63.5,59.5,29.93,NW,315,3.0,6.0,87,0.00,,,0.00,meteohub,2013-08-08 07:06:00,
2013-08-08 02:11:00,63.1,59.5,29.93,North,0,2.0,4.0,88,0.00,,,0.00,meteohub,2013-08-08 07:11:00,
2013-08-08 02:16:00,62.8,59.5,29.94,NW,315,3.0,4.0,89,0.00,,,0.00,meteohub,2013-08-08 07:16:00,
2013-08-08 02:21:00,62.8,59.5,29.94,North,0,4.0,4.0,89,0.00,,,0.00,meteohub,2013-08-08 07:21:00,
2013-08-08 02:26:00,62.6,59.4,29.94,NW,315,3.0,4.0,89,0.00,,,0.00,meteohub,2013-08-08 07:26:00,
2013-08-08 02:31:00,62.4,59.7,29.94,NW,315,2.0,4.0,91,0.00,,,0.00,meteohub,2013-08-08 07:31:00,
2013-08-08 02:36:00,62.2,59.5,29.94,NW,315,2.0,4.0,91,0.00,,,0.00,meteohub,2013-08-08 07:36:00,
2013-08-08 02:41:00,62.1,59.7,29.94,North,0,3.0,4.0,92,0.00,,,0.00,meteohub,2013-08-08 07:41:00,
2013-08-08 02:46:00,62.1,59.7,29.94,NW,315,4.0,5.0,92,0.00,,,0.00,meteohub,2013-08-08 07:46:00,
2013-08-08 02:51:00,62.1,59.7,29.94,North,0,4.0,5.0,92,0.00,,,0.00,meteohub,2013-08-08 07:51:00,
2013-08-08 02:56:00,62.1,59.7,29.94,North,0,3.0,5.0,92,0.00,,,0.00,meteohub,2013-08-08 07:56:00,
2013-08-08 03:01:00,62.2,59.9,29.94,North,0,4.0,5.0,92,0.00,,,0.00,meteohub,2013-08-08 08:01:00,
2013-08-08 03:06:00,62.2,59.9,29.94,North,0,4.0,5.0,92,0.00,,,0.00,meteohub,2013-08-08 08:06:00,
2013-08-08 03:11:00,62.4,60.1,29.94,North,0,2.0,4.0,92,0.00,,,0.00,meteohub,2013-08-08 08:11:00,
2013-08-08 03:16:00,62.2,59.9,29.94,NE,45,1.0,4.0,92,0.00,,,0.00,meteohub,2013-08-08 08:16:00,
2013-08-08 03:22:00,62.4,60.1,29.93,NW,315,4.0,4.0,92,0.00,,,0.00,meteohub,2013-08-08 08:22:00,
2013-08-08 03:27:00,62.4,59.7,29.93,NW,315,4.0,4.0,91,0.00,,,0.00,meteohub,2013-08-08 08:27:00,
2013-08-08 03:32:00,62.4,59.7,29.94,NE,45,2.0,4.0,91,0.00,,,0.00,meteohub,2013-08-08 08:32:00,
2013-08-08 03:37:00,62.2,59.9,29.94,North,0,3.0,5.0,92,0.00,,,0.00,meteohub,2013-08-08 08:37:00,
2013-08-08 03:42:00,62.2,59.9,29.94,NE,45,4.0,5.0,92,0.00,,,0.00,meteohub,2013-08-08 08:42:00,
2013-08-08 03:47:00,62.1,59.7,29.94,NE,45,4.0,5.0,92,0.00,,,0.00,meteohub,2013-08-08 08:47:00,
2013-08-08 03:52:00,62.1,59.7,29.94,East,90,4.0,4.0,92,0.00,,,0.00,meteohub,2013-08-08 08:52:00,
2013-08-08 03:57:00,62.1,59.7,29.93,NE,45,2.0,4.0,92,0.00,,,0.00,meteohub,2013-08-08 08:57:00,
2013-08-08 04:02:00,62.2,59.9,29.93,NE,45,3.0,6.0,92,0.00,,,0.00,meteohub,2013-08-08 09:02:00,
2013-08-08 04:07:00,62.2,59.9,29.92,NE,45,4.0,6.0,92,0.00,,,0.00,meteohub,2013-08-08 09:07:00,
2013-08-08 04:12:00,62.2,59.9,29.92,NE,45,8.0,8.0,92,0.00,,,0.00,meteohub,2013-08-08 09:12:00,
2013-08-08 04:17:00,62.2,59.5,29.93,NE,45,6.0,8.0,91,0.00,,,0.00,meteohub,2013-08-08 09:17:00,
2013-08-08 04:22:00,62.4,59.7,29.92,East,90,5.0,8.0,91,0.00,,,0.00,meteohub,2013-08-08 09:22:00,
2013-08-08 04:27:00,62.4,59.7,29.93,NE,45,4.0,8.0,91,0.00,,,0.00,meteohub,2013-08-08 09:27:00,
2013-08-08 04:32:00,62.2,59.5,29.92,NE,45,8.0,8.0,91,0.00,,,0.00,meteohub,2013-08-08 09:32:00,
2013-08-08 04:37:00,62.4,59.7,29.92,NE,45,7.0,8.0,91,0.00,,,0.00,meteohub,2013-08-08 09:37:00,
2013-08-08 04:42:00,62.4,59.7,29.92,NE,45,6.0,8.0,91,0.00,,,0.00,meteohub,2013-08-08 09:42:00,
2013-08-08 04:47:00,62.6,59.5,29.92,North,0,7.0,8.0,90,0.00,,,0.00,meteohub,2013-08-08 09:47:00,
2013-08-08 04:52:00,62.6,59.5,29.93,NE,45,5.0,7.0,90,0.00,,,0.00,meteohub,2013-08-08 09:52:00,
2013-08-08 04:57:00,62.6,59.4,29.92,NE,45,3.0,7.0,89,0.00,,,0.00,meteohub,2013-08-08 09:57:00,
2013-08-08 05:02:00,62.6,59.4,29.93,NE,45,8.0,8.0,89,0.00,,,0.00,meteohub,2013-08-08 10:02:00,
2013-08-08 05:07:00,62.6,59.4,29.93,NE,45,8.0,8.0,89,0.00,,,0.00,meteohub,2013-08-08 10:07:00,
2013-08-08 05:12:00,62.4,59.7,29.93,NE,45,4.0,8.0,91,0.00,,,0.00,meteohub,2013-08-08 10:12:00,
2013-08-08 05:17:00,62.2,59.5,29.92,North,0,4.0,9.0,91,0.00,,,0.00,meteohub,2013-08-08 10:17:00,
2013-08-08 05:22:00,62.1,59.4,29.92,NE,45,4.0,9.0,91,0.00,,,0.00,meteohub,2013-08-08 10:22:00,
2013-08-08 05:27:00,61.9,59.2,29.92,NE,45,4.0,9.0,91,0.00,,,0.00,meteohub,2013-08-08 10:27:00,
2013-08-08 05:32:00,61.7,59.4,29.92,NE,45,3.0,8.0,92,0.00,,,0.00,meteohub,2013-08-08 10:32:00,
2013-08-08 05:37:00,61.5,59.2,29.92,NE,45,3.0,4.0,92,0.00,,,0.00,meteohub,2013-08-08 10:37:00,
2013-08-08 05:42:00,61.3,59.0,29.91,East,90,5.0,6.0,92,0.00,,,0.00,meteohub,2013-08-08 10:42:00,
2013-08-08 05:47:00,61.3,59.4,29.91,North,0,6.0,7.0,93,0.00,,,0.00,meteohub,2013-08-08 10:47:00,
2013-08-08 05:52:00,61.3,59.4,29.91,NE,45,9.0,9.0,93,0.00,,,0.00,meteohub,2013-08-08 10:52:00,
2013-08-08 05:57:00,61.3,59.4,29.91,NE,45,4.0,9.0,93,0.00,,,0.00,meteohub,2013-08-08 10:57:00,
2013-08-08 06:02:00,61.2,59.2,29.91,SW,225,8.0,9.0,93,0.00,,,0.00,meteohub,2013-08-08 11:02:00,
2013-08-08 06:07:00,61.3,59.5,29.91,East,90,7.0,9.0,94,0.00,,,0.00,meteohub,2013-08-08 11:07:00,
2013-08-08 06:12:00,61.3,59.5,29.91,NE,45,4.0,8.0,94,0.00,,,0.00,meteohub,2013-08-08 11:12:00,
2013-08-08 06:17:00,61.3,59.5,29.91,NE,45,8.0,8.0,94,0.00,,,0.00,meteohub,2013-08-08 11:17:00,
2013-08-08 06:22:00,61.5,59.7,29.91,NE,45,7.0,8.0,94,0.00,,,0.00,meteohub,2013-08-08 11:22:00,
2013-08-08 06:27:00,61.7,59.9,29.91,NNW,338,6.0,8.0,94,0.00,,,0.00,meteohub,2013-08-08 11:27:00,
2013-08-08 06:32:00,61.7,59.9,29.91,North,0,4.0,9.0,94,0.00,,,0.00,meteohub,2013-08-08 11:32:00,
2013-08-08 06:38:00,62.1,60.3,29.92,North,0,8.0,9.0,94,0.00,,,0.00,meteohub,2013-08-08 11:38:00,
2013-08-08 06:43:00,62.4,60.6,29.92,East,90,5.0,9.0,94,0.00,,,0.00,meteohub,2013-08-08 11:43:00,
2013-08-08 06:48:00,62.6,60.3,29.93,NE,45,9.0,9.0,92,0.00,,,0.00,meteohub,2013-08-08 11:48:00,
2013-08-08 06:53:00,62.8,60.4,29.92,North,0,6.0,10.0,92,0.00,,,0.00,meteohub,2013-08-08 11:53:00,
2013-08-08 06:58:00,63.0,60.6,29.93,NE,45,8.0,10.0,92,0.00,,,0.00,meteohub,2013-08-08 11:58:00,
2013-08-08 07:03:00,63.1,60.8,29.93,East,90,4.0,10.0,92,0.00,,,0.00,meteohub,2013-08-08 12:03:00,
2013-08-08 07:08:00,63.1,60.8,29.93,SE,135,3.0,10.0,92,0.00,,,0.00,meteohub,2013-08-08 12:08:00,
2013-08-08 07:13:00,63.1,60.8,29.93,SE,135,9.0,9.0,92,0.00,,,0.00,meteohub,2013-08-08 12:13:00,
2013-08-08 07:18:00,63.0,60.6,29.94,SE,135,7.0,7.0,92,0.00,,,0.00,meteohub,2013-08-08 12:18:00,
2013-08-08 07:23:00,63.0,60.6,29.94,SE,135,5.0,9.0,92,0.00,,,0.00,meteohub,2013-08-08 12:23:00,
2013-08-08 07:28:00,62.8,60.8,29.94,SE,135,6.0,9.0,93,0.00,,,0.00,meteohub,2013-08-08 12:28:00,
2013-08-08 07:33:00,62.8,60.8,29.94,SE,135,6.0,8.0,93,0.00,,,0.00,meteohub,2013-08-08 12:33:00,
2013-08-08 07:38:00,62.8,61.0,29.95,SE,135,7.0,7.0,94,0.00,,,0.00,meteohub,2013-08-08 12:38:00,
2013-08-08 07:43:00,63.3,61.5,29.96,East,90,6.0,8.0,94,0.00,,,0.00,meteohub,2013-08-08 12:43:00,
2013-08-08 07:48:00,63.7,61.9,29.96,SE,135,6.0,8.0,94,0.00,,,0.00,meteohub,2013-08-08 12:48:00,
2013-08-08 07:53:00,64.2,62.4,29.96,East,90,5.0,8.0,94,0.00,,,0.00,meteohub,2013-08-08 12:53:00,
2013-08-08 07:58:00,64.8,63.3,29.97,SE,135,4.0,8.0,95,0.00,,,0.00,meteohub,2013-08-08 12:58:00,
2013-08-08 08:03:00,64.6,62.8,29.97,SE,135,10.0,10.0,94,0.00,,,0.00,meteohub,2013-08-08 13:03:00,
2013-08-08 08:08:00,64.4,62.4,29.96,SE,135,4.0,10.0,93,0.00,,,0.00,meteohub,2013-08-08 13:08:00,
2013-08-08 08:13:00,64.9,63.1,29.97,East,90,9.0,10.0,94,0.00,,,0.00,meteohub,2013-08-08 13:13:00,
2013-08-08 08:18:00,65.1,63.3,29.97,NE,45,4.0,10.0,94,0.00,,,0.00,meteohub,2013-08-08 13:18:00,
2013-08-08 08:24:00,66.2,63.9,29.97,East,90,10.0,10.0,92,0.00,,,0.00,meteohub,2013-08-08 13:24:00,
2013-08-08 08:29:00,66.6,63.9,29.96,East,90,8.0,10.0,91,0.00,,,0.00,meteohub,2013-08-08 13:29:00,
2013-08-08 08:34:00,66.6,63.1,29.96,SE,135,11.0,11.0,89,0.00,,,0.00,meteohub,2013-08-08 13:34:00,
2013-08-08 08:39:00,66.6,63.1,29.96,SE,135,6.0,13.0,89,0.00,,,0.00,meteohub,2013-08-08 13:39:00,
2013-08-08 08:44:00,67.1,63.7,29.96,NE,45,9.0,13.0,89,0.00,,,0.00,meteohub,2013-08-08 13:44:00,
2013-08-08 08:49:00,67.8,64.4,29.96,SE,135,4.0,15.0,89,0.00,,,0.00,meteohub,2013-08-08 13:49:00,
2013-08-08 08:54:00,67.6,64.0,29.96,East,90,11.0,15.0,88,0.00,,,0.00,meteohub,2013-08-08 13:54:00,
2013-08-08 08:59:00,67.8,64.2,29.96,East,90,11.0,15.0,88,0.00,,,0.00,meteohub,2013-08-08 13:59:00,
2013-08-08 09:04:00,68.0,64.0,29.96,East,90,8.0,15.0,87,0.00,,,0.00,meteohub,2013-08-08 14:04:00,
2013-08-08 09:09:00,68.4,64.4,29.96,East,90,7.0,15.0,87,0.00,,,0.00,meteohub,2013-08-08 14:09:00,
2013-08-08 09:14:00,68.4,64.0,29.96,SE,135,10.0,12.0,86,0.00,,,0.00,meteohub,2013-08-08 14:14:00,
2013-08-08 09:19:00,68.5,64.2,29.95,SE,135,13.0,13.0,86,0.00,,,0.00,meteohub,2013-08-08 14:19:00,
2013-08-08 09:24:00,68.7,64.4,29.95,East,90,5.0,10.0,86,0.00,,,0.00,meteohub,2013-08-08 14:24:00,
2013-08-08 09:29:00,69.3,64.6,29.95,East,90,8.0,13.0,85,0.00,,,0.00,meteohub,2013-08-08 14:29:00,
2013-08-08 09:34:00,69.8,64.8,29.95,NE,45,4.0,13.0,84,0.00,,,0.00,meteohub,2013-08-08 14:34:00,
2013-08-08 09:39:00,70.0,64.6,29.96,NW,315,4.0,10.0,83,0.00,,,0.00,meteohub,2013-08-08 14:39:00,
2013-08-08 09:44:00,70.3,64.9,29.96,East,90,8.0,11.0,83,0.00,,,0.00,meteohub,2013-08-08 14:44:00,
2013-08-08 09:49:00,70.7,64.9,29.96,SE,135,8.0,11.0,82,0.00,,,0.00,meteohub,2013-08-08 14:49:00,
2013-08-08 09:55:00,70.5,64.8,29.96,East,90,4.0,11.0,82,0.00,,,0.00,meteohub,2013-08-08 14:55:00,
2013-08-08 10:00:00,70.3,64.2,29.96,SE,135,9.0,10.0,81,0.00,,,0.00,meteohub,2013-08-08 15:00:00,
2013-08-08 10:05:00,70.0,64.2,29.96,East,90,5.0,-999.0,82,0.00,,,0.00,meteohub,2013-08-08 15:05:00,
2013-08-08 10:10:00,70.3,64.9,29.97,SE,135,7.0,9.0,83,0.00,,,0.00,meteohub,2013-08-08 15:10:00,
2013-08-08 10:15:00,70.7,64.9,29.97,SE,135,4.0,9.0,82,0.00,,,0.00,meteohub,2013-08-08 15:15:00,
2013-08-08 10:20:00,70.9,65.1,29.97,SE,135,8.0,8.0,82,0.00,,,0.00,meteohub,2013-08-08 15:20:00,
2013-08-08 10:25:00,70.5,64.8,29.97,NE,45,6.0,8.0,82,0.00,,,0.00,meteohub,2013-08-08 15:25:00,
2013-08-08 10:30:00,70.5,64.8,29.98,SE,135,8.0,10.0,82,0.00,,,0.00,meteohub,2013-08-08 15:30:00,
2013-08-08 10:35:00,70.5,64.4,29.99,South,180,6.0,10.0,81,0.00,,,0.00,meteohub,2013-08-08 15:35:00,
2013-08-08 10:40:00,70.5,64.8,29.99,South,180,7.0,10.0,82,0.00,,,0.00,meteohub,2013-08-08 15:40:00,
2013-08-08 10:45:00,71.1,65.3,29.99,SE,135,6.0,8.0,82,0.00,,,0.00,meteohub,2013-08-08 15:45:00,
2013-08-08 10:50:00,72.0,65.5,29.98,SE,135,5.0,8.0,80,0.00,,,0.00,meteohub,2013-08-08 15:50:00,
2013-08-08 10:55:00,72.5,64.9,29.98,SE,135,6.0,9.0,77,0.00,,,0.00,meteohub,2013-08-08 15:55:00,
2013-08-08 11:00:00,72.5,64.9,29.98,SE,135,5.0,9.0,77,0.00,,,0.00,meteohub,2013-08-08 16:00:00,
2013-08-08 11:05:00,72.9,64.4,29.98,SE,135,5.0,9.0,75,0.00,,,0.00,meteohub,2013-08-08 16:05:00,
2013-08-08 11:10:00,72.9,64.8,29.97,SE,135,8.0,8.0,76,0.00,,,0.00,meteohub,2013-08-08 16:10:00,
2013-08-08 11:15:00,73.2,65.1,29.98,SE,135,5.0,13.0,76,0.00,,,0.00,meteohub,2013-08-08 16:15:00,
2013-08-08 11:20:00,74.1,66.0,29.97,SE,135,6.0,13.0,76,0.00,,,0.00,meteohub,2013-08-08 16:20:00,
2013-08-08 11:26:00,73.9,65.5,29.97,East,90,3.0,13.0,75,0.00,,,0.00,meteohub,2013-08-08 16:26:00,
2013-08-08 11:31:00,73.6,65.1,29.97,NE,45,4.0,9.0,75,0.00,,,0.00,meteohub,2013-08-08 16:31:00,
2013-08-08 11:36:00,74.7,66.2,29.96,East,90,8.0,9.0,75,0.00,,,0.00,meteohub,2013-08-08 16:36:00,
2013-08-08 11:41:00,74.5,65.7,29.96,SE,135,4.0,8.0,74,0.00,,,0.00,meteohub,2013-08-08 16:41:00,
2013-08-08 11:46:00,75.0,65.8,29.96,East,90,10.0,10.0,73,0.00,,,0.00,meteohub,2013-08-08 16:46:00,
2013-08-08 11:51:00,75.4,66.2,29.96,East,90,7.0,10.0,73,0.00,,,0.00,meteohub,2013-08-08 16:51:00,
2013-08-08 11:56:00,74.8,65.1,29.96,SE,135,8.0,12.0,72,0.00,,,0.00,meteohub,2013-08-08 16:56:00,
2013-08-08 12:01:00,74.5,65.3,29.96,NE,45,8.0,13.0,73,0.00,,,0.00,meteohub,2013-08-08 17:01:00,
2013-08-08 12:06:00,74.5,66.0,29.96,NE,45,8.0,13.0,75,0.00,,,0.00,meteohub,2013-08-08 17:06:00,
2013-08-08 12:11:00,75.9,66.6,29.96,SE,135,4.0,11.0,73,0.00,,,0.00,meteohub,2013-08-08 17:11:00,
2013-08-08 12:16:00,76.1,65.7,29.96,East,90,4.0,9.0,70,0.00,,,0.00,meteohub,2013-08-08 17:16:00,
2013-08-08 12:21:00,75.0,64.9,29.96,SE,135,4.0,9.0,71,0.00,,,0.00,meteohub,2013-08-08 17:21:00,
2013-08-08 12:26:00,74.3,65.5,29.96,NE,45,5.0,6.0,74,0.00,,,0.00,meteohub,2013-08-08 17:26:00,
2013-08-08 12:31:00,73.8,65.3,29.96,South,180,3.0,8.0,75,0.00,,,0.00,meteohub,2013-08-08 17:31:00,
2013-08-08 12:36:00,74.8,66.7,29.95,NE,45,5.0,8.0,76,0.00,,,0.00,meteohub,2013-08-08 17:36:00,
2013-08-08 12:41:00,75.7,65.7,29.95,East,90,7.0,8.0,71,0.00,,,0.00,meteohub,2013-08-08 17:41:00,
2013-08-08 12:46:00,75.9,65.8,29.95,NE,45,7.0,11.0,71,0.00,,,0.00,meteohub,2013-08-08 17:46:00,
2013-08-08 12:51:00,76.5,66.0,29.95,East,90,8.0,11.0,70,0.00,,,0.00,meteohub,2013-08-08 17:51:00,
2013-08-08 12:56:00,76.1,64.8,29.94,NE,45,8.0,11.0,68,0.00,,,0.00,meteohub,2013-08-08 17:56:00,
2013-08-08 13:01:00,76.8,66.7,29.94,North,0,4.0,11.0,71,0.00,,,0.00,meteohub,2013-08-08 18:01:00,
2013-08-08 13:07:00,77.0,65.1,29.94,NE,45,6.0,11.0,67,0.00,,,0.00,meteohub,2013-08-08 18:07:00,
2013-08-08 13:12:00,75.7,64.8,29.95,North,0,4.0,8.0,69,0.00,,,0.00,meteohub,2013-08-08 18:12:00,
2013-08-08 13:17:00,75.4,65.7,29.95,NE,45,7.0,8.0,72,0.00,,,0.00,meteohub,2013-08-08 18:17:00,
2013-08-08 13:22:00,75.0,66.2,29.94,SE,135,4.0,8.0,74,0.00,,,0.00,meteohub,2013-08-08 18:22:00,
2013-08-08 13:27:00,75.2,66.0,29.95,NE,45,3.0,7.0,73,0.00,,,0.00,meteohub,2013-08-08 18:27:00,
2013-08-08 13:32:00,75.4,66.2,29.94,NE,45,2.0,7.0,73,0.00,,,0.00,meteohub,2013-08-08 18:32:00,
2013-08-08 13:37:00,75.4,65.3,29.94,NE,45,3.0,6.0,71,0.00,,,0.00,meteohub,2013-08-08 18:37:00,
2013-08-08 13:42:00,75.6,65.5,29.94,East,90,3.0,4.0,71,0.00,,,0.00,meteohub,2013-08-08 18:42:00,
2013-08-08 13:47:00,75.7,66.0,29.94,North,0,3.0,4.0,72,0.00,,,0.00,meteohub,2013-08-08 18:47:00,
2013-08-08 13:52:00,76.5,65.1,29.94,NE,45,4.0,4.0,68,0.00,,,0.00,meteohub,2013-08-08 18:52:00,
2013-08-08 13:57:00,77.0,64.4,29.94,East,90,4.0,6.0,65,0.00,,,0.00,meteohub,2013-08-08 18:57:00,
2013-08-08 14:02:00,77.5,65.3,29.94,NE,45,5.0,6.0,66,0.00,,,0.00,meteohub,2013-08-08 19:02:00,
2013-08-08 14:07:00,77.2,64.6,29.94,East,90,4.0,7.0,65,0.00,,,0.00,meteohub,2013-08-08 19:07:00,
2013-08-08 14:12:00,77.2,64.6,29.94,North,0,0.0,7.0,65,0.00,,,0.00,meteohub,2013-08-08 19:12:00,
2013-08-08 14:17:00,77.0,64.4,29.93,NW,315,4.0,7.0,65,0.00,,,0.00,meteohub,2013-08-08 19:17:00,
2013-08-08 14:22:00,77.4,65.1,29.93,East,90,4.0,5.0,66,0.00,,,0.00,meteohub,2013-08-08 19:22:00,
2013-08-08 14:27:00,78.4,65.7,29.93,East,90,3.0,5.0,65,0.00,,,0.00,meteohub,2013-08-08 19:27:00,
2013-08-08 14:32:00,78.8,64.2,29.92,East,90,2.0,5.0,61,0.00,,,0.00,meteohub,2013-08-08 19:32:00,
2013-08-08 14:37:00,79.0,64.8,29.92,NE,45,6.0,9.0,62,0.00,,,0.00,meteohub,2013-08-08 19:37:00,
2013-08-08 14:42:00,78.6,64.0,29.92,NE,45,7.0,9.0,61,0.00,,,0.00,meteohub,2013-08-08 19:42:00,
2013-08-08 14:47:00,77.7,63.7,29.93,North,0,4.0,9.0,62,0.00,,,0.00,meteohub,2013-08-08 19:47:00,
2013-08-08 14:52:00,76.8,63.7,29.92,NE,45,2.0,8.0,64,0.00,,,0.00,meteohub,2013-08-08 19:52:00,
2013-08-08 14:57:00,77.2,64.0,29.92,North,0,2.0,7.0,64,0.00,,,0.00,meteohub,2013-08-08 19:57:00,
2013-08-08 15:02:00,78.1,63.5,29.92,NE,45,3.0,5.0,61,0.00,,,0.00,meteohub,2013-08-08 20:02:00,
2013-08-08 15:07:00,79.0,63.5,29.92,NW,315,4.0,4.0,59,0.00,,,0.00,meteohub,2013-08-08 20:07:00,
2013-08-08 15:12:00,79.5,63.5,29.91,NE,45,7.0,7.0,58,0.00,,,0.00,meteohub,2013-08-08 20:12:00,
2013-08-08 15:17:00,79.2,62.1,29.91,East,90,6.0,8.0,56,0.00,,,0.00,meteohub,2013-08-08 20:17:00,
2013-08-08 15:22:00,77.7,63.7,29.91,NE,45,4.0,9.0,62,0.00,,,0.00,meteohub,2013-08-08 20:22:00,
2013-08-08 15:27:00,76.6,62.6,29.92,NE,45,2.0,9.0,62,0.00,,,0.00,meteohub,2013-08-08 20:27:00,
2013-08-08 15:32:00,77.2,61.7,29.92,SE,135,3.0,9.0,59,0.00,,,0.00,meteohub,2013-08-08 20:32:00,
2013-08-08 15:37:00,78.4,61.9,29.91,East,90,2.0,4.0,57,0.00,,,0.00,meteohub,2013-08-08 20:37:00,
2013-08-08 15:42:00,79.3,61.7,29.91,North,0,3.0,4.0,55,0.00,,,0.00,meteohub,2013-08-08 20:42:00,
2013-08-08 15:47:00,79.3,62.8,29.91,North,0,4.0,5.0,57,0.00,,,0.00,meteohub,2013-08-08 20:47:00,
2013-08-08 15:52:00,79.3,62.8,29.91,North,0,8.0,8.0,57,0.00,,,0.00,meteohub,2013-08-08 20:52:00,
2013-08-08 15:57:00,79.3,62.8,29.91,North,0,5.0,8.0,57,0.00,,,0.00,meteohub,2013-08-08 20:57:00,
2013-08-08 16:02:00,79.5,62.4,29.91,NE,45,6.0,8.0,56,0.00,,,0.00,meteohub,2013-08-08 21:02:00,
2013-08-08 16:07:00,79.5,61.9,29.90,NW,315,6.0,8.0,55,0.00,,,0.00,meteohub,2013-08-08 21:07:00,
2013-08-08 16:12:00,79.7,61.5,29.90,North,0,4.0,7.0,54,0.00,,,0.00,meteohub,2013-08-08 21:12:00,
2013-08-08 16:17:00,79.7,62.1,29.91,North,0,4.0,7.0,55,0.00,,,0.00,meteohub,2013-08-08 21:17:00,
2013-08-08 16:22:00,79.0,61.5,29.90,NE,45,4.0,6.0,55,0.00,,,0.00,meteohub,2013-08-08 21:22:00,
2013-08-08 16:27:00,78.8,61.7,29.90,North,0,6.0,7.0,56,0.00,,,0.00,meteohub,2013-08-08 21:27:00,
2013-08-08 16:32:00,78.8,62.2,29.91,East,90,2.0,7.0,57,0.00,,,0.00,meteohub,2013-08-08 21:32:00,
2013-08-08 16:37:00,79.2,62.6,29.90,NW,315,5.0,7.0,57,0.00,,,0.00,meteohub,2013-08-08 21:37:00,
2013-08-08 16:42:00,79.3,61.2,29.90,North,0,5.0,6.0,54,0.00,,,0.00,meteohub,2013-08-08 21:42:00,
2013-08-08 16:47:00,79.3,60.8,29.90,North,0,3.0,6.0,53,0.00,,,0.00,meteohub,2013-08-08 21:47:00,
2013-08-08 16:52:00,79.3,60.3,29.90,NE,45,3.0,6.0,52,0.00,,,0.00,meteohub,2013-08-08 21:52:00,
2013-08-08 16:57:00,79.7,60.4,29.90,North,0,3.0,5.0,52,0.00,,,0.00,meteohub,2013-08-08 21:57:00,
2013-08-08 17:02:00,79.5,59.7,29.90,NE,45,4.0,5.0,51,0.00,,,0.00,meteohub,2013-08-08 22:02:00,
2013-08-08 17:07:00,79.5,59.2,29.90,North,0,3.0,6.0,50,0.00,,,0.00,meteohub,2013-08-08 22:07:00,
2013-08-08 17:12:00,79.5,58.6,29.91,North,0,6.0,6.0,49,0.00,,,0.00,meteohub,2013-08-08 22:12:00,
2013-08-08 17:17:00,79.2,59.0,29.91,NW,315,2.0,6.0,50,0.00,,,0.00,meteohub,2013-08-08 22:17:00,
2013-08-08 17:22:00,79.5,58.1,29.91,NE,45,2.0,6.0,48,0.00,,,0.00,meteohub,2013-08-08 22:22:00,
2013-08-08 17:27:00,79.9,59.0,29.90,North,0,2.0,6.0,49,0.00,,,0.00,meteohub,2013-08-08 22:27:00,
2013-08-08 17:32:00,80.6,59.7,29.90,North,0,2.0,4.0,49,0.00,,,0.00,meteohub,2013-08-08 22:32:00,
2013-08-08 17:37:00,80.6,59.2,29.90,NE,45,4.0,4.0,48,0.00,,,0.00,meteohub,2013-08-08 22:37:00,
2013-08-08 17:43:00,80.4,60.6,29.90,North,0,2.0,4.0,51,0.00,,,0.00,meteohub,2013-08-08 22:43:00,
2013-08-08 17:48:00,80.2,60.4,29.91,NW,315,4.0,4.0,51,0.00,,,0.00,meteohub,2013-08-08 22:48:00,
2013-08-08 17:53:00,80.1,58.6,29.91,North,0,2.0,4.0,48,0.00,,,0.00,meteohub,2013-08-08 22:53:00,
2013-08-08 17:58:00,79.9,59.0,29.91,North,0,2.0,4.0,49,0.00,,,0.00,meteohub,2013-08-08 22:58:00,
2013-08-08 18:03:00,79.5,60.4,29.91,North,0,2.0,4.0,52,0.00,,,0.00,meteohub,2013-08-08 23:03:00,
2013-08-08 18:09:00,78.8,59.7,29.91,NE,45,2.0,4.0,52,0.00,,,0.00,meteohub,2013-08-08 23:09:00,
2013-08-08 18:15:00,78.1,60.6,29.91,North,0,0.0,3.0,55,0.00,,,0.00,meteohub,2013-08-08 23:15:00,
2013-08-08 18:20:00,77.9,61.5,29.91,North,0,0.0,2.0,57,0.00,,,0.00,meteohub,2013-08-08 23:20:00,
2013-08-08 18:26:00,77.7,63.1,29.91,North,0,0.0,1.0,61,0.00,,,0.00,meteohub,2013-08-08 23:26:00,
2013-08-08 18:31:00,77.9,62.4,29.91,North,0,0.0,0.0,59,0.00,,,0.00,meteohub,2013-08-08 23:31:00,
2013-08-08 18:37:00,77.7,61.7,29.91,North,0,0.0,0.0,58,0.00,,,0.00,meteohub,2013-08-08 23:37:00,
2013-08-08 18:42:00,77.5,61.5,29.91,North,0,0.0,0.0,58,0.00,,,0.00,meteohub,2013-08-08 23:42:00,
2013-08-08 18:48:00,76.8,60.4,29.92,North,0,0.0,0.0,57,0.00,,,0.00,meteohub,2013-08-08 23:48:00,
2013-08-08 18:53:00,76.5,59.5,29.92,North,0,0.0,0.0,56,0.00,,,0.00,meteohub,2013-08-08 23:53:00,
2013-08-08 18:58:00,76.1,60.8,29.92,North,0,2.0,0.0,59,0.00,,,0.00,meteohub,2013-08-08 23:58:00,
2013-08-08 19:05:00,75.4,61.9,29.92,North,0,2.0,2.0,63,0.00,,,0.00,meteohub,2013-08-09 00:05:00,
2013-08-08 19:10:00,74.8,62.2,29.92,North,0,2.0,3.0,65,0.00,,,0.00,meteohub,2013-08-09 00:10:00,
2013-08-08 19:15:00,74.5,62.8,29.92,North,0,0.0,3.0,67,0.00,,,0.00,meteohub,2013-08-09 00:15:00,
2013-08-08 19:20:00,74.5,62.8,29.92,North,0,2.0,2.0,67,0.00,,,0.00,meteohub,2013-08-09 00:20:00,
2013-08-08 19:25:00,74.3,62.6,29.93,North,0,0.0,2.0,67,0.00,,,0.00,meteohub,2013-08-09 00:25:00,
2013-08-08 19:31:00,74.3,62.6,29.93,North,0,1.0,2.0,67,0.00,,,0.00,meteohub,2013-08-09 00:31:00,
2013-08-08 19:37:00,74.1,62.1,29.93,North,0,0.0,2.0,66,0.00,,,0.00,meteohub,2013-08-09 00:37:00,
2013-08-08 19:42:00,73.9,61.9,29.93,NE,45,0.0,2.0,66,0.00,,,0.00,meteohub,2013-08-09 00:42:00,
2013-08-08 19:47:00,73.8,62.1,29.93,North,0,0.0,2.0,67,0.00,,,0.00,meteohub,2013-08-09 00:47:00,
2013-08-08 19:53:00,73.4,61.7,29.93,North,0,2.0,0.0,67,0.00,,,0.00,meteohub,2013-08-09 00:53:00,
2013-08-08 19:58:00,73.4,61.3,29.93,North,0,2.0,3.0,66,0.00,,,0.00,meteohub,2013-08-09 00:58:00,
2013-08-08 20:03:00,73.2,61.2,29.94,North,0,2.0,3.0,66,0.00,,,0.00,meteohub,2013-08-09 01:03:00,
2013-08-08 20:09:00,73.0,61.0,29.93,North,0,2.0,3.0,66,0.00,,,0.00,meteohub,2013-08-09 01:09:00,
2013-08-08 20:15:00,73.0,61.0,29.93,North,0,2.0,2.0,66,0.00,,,0.00,meteohub,2013-08-09 01:15:00,
2013-08-08 20:20:00,72.9,60.8,29.93,North,0,0.0,2.0,66,0.00,,,0.00,meteohub,2013-08-09 01:20:00,
2013-08-08 20:26:00,72.7,61.2,29.93,North,0,0.0,2.0,67,0.00,,,0.00,meteohub,2013-08-09 01:26:00,
2013-08-08 20:31:00,72.5,61.0,29.93,North,0,0.0,2.0,67,0.00,,,0.00,meteohub,2013-08-09 01:31:00,
2013-08-08 20:37:00,72.3,60.3,29.94,North,0,0.0,2.0,66,0.00,,,0.00,meteohub,2013-08-09 01:37:00,
2013-08-08 20:42:00,72.5,60.4,29.93,North,0,0.0,0.0,66,0.00,,,0.00,meteohub,2013-08-09 01:42:00,
2013-08-08 20:47:00,72.7,60.6,29.93,North,0,0.0,0.0,66,0.00,,,0.00,meteohub,2013-08-09 01:47:00,
2013-08-08 20:52:00,72.9,60.4,29.94,North,0,0.0,1.0,65,0.00,,,0.00,meteohub,2013-08-09 01:52:00,
2013-08-08 20:57:00,72.9,60.4,29.93,North,0,2.0,2.0,65,0.00,,,0.00,meteohub,2013-08-09 01:57:00,
2013-08-08 21:02:00,72.9,60.8,29.93,North,0,1.0,2.0,66,0.00,,,0.00,meteohub,2013-08-09 02:02:00,
2013-08-08 21:07:00,72.9,60.8,29.93,North,0,0.0,2.0,66,0.00,,,0.00,meteohub,2013-08-09 02:07:00,
2013-08-08 21:13:00,73.0,60.1,29.93,North,0,1.0,2.0,64,0.00,,,0.00,meteohub,2013-08-09 02:13:00,
2013-08-08 21:19:00,73.0,60.1,29.93,North,0,0.0,2.0,64,0.00,,,0.00,meteohub,2013-08-09 02:19:00,
2013-08-08 21:24:00,72.3,59.9,29.93,North,0,0.0,2.0,65,0.00,,,0.00,meteohub,2013-08-09 02:24:00,
2013-08-08 21:29:00,71.8,59.7,29.93,North,0,2.0,2.0,66,0.00,,,0.00,meteohub,2013-08-09 02:29:00,
2013-08-08 21:34:00,72.0,59.5,29.93,North,0,0.0,2.0,65,0.00,,,0.00,meteohub,2013-08-09 02:34:00,
2013-08-08 21:40:00,72.1,59.7,29.93,North,0,0.0,2.0,65,0.00,,,0.00,meteohub,2013-08-09 02:40:00,
2013-08-08 21:45:00,72.0,59.9,29.93,North,0,0.0,2.0,66,0.00,,,0.00,meteohub,2013-08-09 02:45:00,
2013-08-08 21:51:00,72.0,59.9,29.93,East,90,0.0,0.0,66,0.00,,,0.00,meteohub,2013-08-09 02:51:00,
2013-08-08 21:56:00,71.6,59.2,29.94,NE,45,0.0,0.0,65,0.00,,,0.00,meteohub,2013-08-09 02:56:00,
2013-08-08 22:01:00,71.2,59.7,29.93,NE,45,2.0,0.0,67,0.00,,,0.00,meteohub,2013-08-09 03:01:00,
2013-08-08 22:06:00,71.1,60.4,29.93,NE,45,0.0,2.0,69,0.00,,,0.00,meteohub,2013-08-09 03:06:00,
2013-08-08 22:12:00,71.1,61.2,29.94,NE,45,0.0,3.0,71,0.00,,,0.00,meteohub,2013-08-09 03:12:00,
2013-08-08 22:17:00,71.2,61.7,29.93,NE,45,0.0,3.0,72,0.00,,,0.00,meteohub,2013-08-09 03:17:00,
2013-08-08 22:22:00,71.1,61.5,29.93,NE,45,0.0,3.0,72,0.00,,,0.00,meteohub,2013-08-09 03:22:00,
2013-08-08 22:27:00,70.9,61.3,29.93,NE,45,0.0,3.0,72,0.00,,,0.00,meteohub,2013-08-09 03:27:00,
2013-08-08 22:32:00,70.9,61.3,29.93,NE,45,0.0,0.0,72,0.00,,,0.00,meteohub,2013-08-09 03:32:00,
2013-08-08 22:37:00,70.9,61.9,29.94,NE,45,0.0,0.0,73,0.00,,,0.00,meteohub,2013-08-09 03:37:00,
2013-08-08 22:42:00,70.9,61.9,29.93,ESE,113,2.0,0.0,73,0.00,,,0.00,meteohub,2013-08-09 03:42:00,
2013-08-08 22:47:00,71.2,62.1,29.93,East,90,0.0,2.0,73,0.00,,,0.00,meteohub,2013-08-09 03:47:00,
2013-08-08 22:52:00,71.2,62.1,29.93,East,90,0.0,2.0,73,0.00,,,0.00,meteohub,2013-08-09 03:52:00,
2013-08-08 22:57:00,72.0,61.7,29.93,East,90,4.0,4.0,70,0.00,,,0.00,meteohub,2013-08-09 03:57:00,
2013-08-08 23:01:00,71.8,61.5,29.93,SE,135,2.0,4.0,70,0.00,,,0.00,meteohub,2013-08-09 04:01:00,
2013-08-08 23:02:00,71.8,61.5,29.93,SE,135,2.0,4.0,70,0.00,,,0.00,meteohub,2013-08-09 04:02:00,
2013-08-08 23:03:00,71.8,61.5,29.93,SE,135,2.0,4.0,70,0.00,,,0.00,meteohub,2013-08-09 04:03:00,
2013-08-08 23:04:00,71.8,61.5,29.93,SE,135,2.0,4.0,70,0.00,,,0.00,meteohub,2013-08-09 04:04:00,
2013-08-08 23:05:00,71.8,61.5,29.93,SE,135,2.0,4.0,70,0.00,,,0.00,meteohub,2013-08-09 04:05:00,
2013-08-08 23:10:00,71.4,61.9,29.94,SE,135,2.0,4.0,72,0.00,,,0.00,meteohub,2013-08-09 04:10:00,
2013-08-08 23:15:00,71.4,62.2,29.94,SE,135,3.0,3.0,73,0.00,,,0.00,meteohub,2013-08-09 04:15:00,
2013-08-08 23:20:00,71.4,62.2,29.94,SE,135,3.0,4.0,73,0.00,,,0.00,meteohub,2013-08-09 04:20:00,
2013-08-08 23:25:00,71.2,62.1,29.93,SE,135,4.0,4.0,73,0.00,,,0.00,meteohub,2013-08-09 04:25:00,
2013-08-08 23:30:00,71.2,62.1,29.94,SE,135,4.0,4.0,73,0.00,,,0.00,meteohub,2013-08-09 04:30:00,
2013-08-08 23:35:00,71.2,62.1,29.94,SE,135,4.0,4.0,73,0.00,,,0.00,meteohub,2013-08-09 04:35:00,
2013-08-08 23:40:00,71.1,62.4,29.94,SE,135,4.0,5.0,74,0.00,,,0.00,meteohub,2013-08-09 04:40:00,
2013-08-08 23:45:00,70.9,62.2,29.94,SE,135,4.0,5.0,74,0.00,,,0.00,meteohub,2013-08-09 04:45:00,
2013-08-08 23:50:00,70.7,62.1,29.94,SE,135,4.0,5.0,74,0.00,,,0.00,meteohub,2013-08-09 04:50:00,
2013-08-08 23:56:00,70.7,62.4,29.93,SE,135,3.0,4.0,75,0.00,,,0.00,meteohub,2013-08-09 04:56:00,